Flag for Germany Weather past 2 weeks in Riesa, Saxony, Germany

Now
84 °F

Passing clouds.


Feels Like: 83 °F
Forecast: 65 / 80 °F
Wind: 3 mph from Southwest

Location: Dresden-Klotzsche

Current Time: Aug 4, 2015 at 10:00:47 PM

Latest Report: Aug 4, 2015 at 9:00 PM


Visibility: 22 mi

Pressure: 29.85 "Hg

Humidity: 38%

Dew point: 56 °F

Location of RiesaLocation

Historic Weather in Riesa — Graph

°F

Riesa temperature yesterday

Maximum temperature yesterday: 87 °F (at 6:00 PM)
Minimum temperature yesterday: 59 °F (at 6:00 AM)
Average temperature yesterday: 75 °F

Past Weeks' High & Low Weather Summary

 TemperatureHumidityPressure
High91 °F (Jul 22, 4:00 PM)99% (Jul 23, 3:00 AM)30.11 "Hg (Jul 23, 3:00 AM)
Low51 °F (Aug 1, 4:00 AM)24% (Aug 3, 4:00 PM)29.59 "Hg (Jul 27, 3:00 PM)
Average69 °F57%29.89 "Hg
* Reported Jul 20 9:00 PM — Aug 4 9:00 PM, Riesa, Weather by CustomWeather, © 2015

Note: Actual official high and low records may vary slightly from our data, if they occured in-between our weather recording intervals... More about our weather records

Advertising

Riesa weather history for previous 24 hours

 ConditionsComfort  
Time TempWeatherWind HumidityBarometerVisibility
9:00 PM
Tue, Aug 4
84 °FPassing clouds.3 mph38%29.85 "Hg22 mi
8:00 PM89 °FOvercast.2 mph33%29.83 "Hg25 mi
7:00 PM88 °FPartly sunny.3 mph31%29.83 "Hg25 mi
6:00 PM90 °FScattered clouds.5 mph28%29.83 "Hg17 mi
5:00 PM91 °FPassing clouds.6 mph29%29.84 "Hg17 mi
4:00 PM90 °FPassing clouds.7 mph28%29.85 "Hg17 mi
3:00 PM90 °FPassing clouds.8 mph29%29.86 "Hg17 mi
2:00 PM88 °FPassing clouds.8 mph32%29.88 "Hg17 mi
1:00 PM87 °FPassing clouds.7 mph37%29.90 "Hg16 mi
12:00 PM86 °FSunny.8 mph36%29.91 "Hg16 mi
10:00 AM81 °FPassing clouds.6 mph47%29.96 "Hg16 mi
9:00 AM78 °FPassing clouds.5 mph54%29.96 "Hg16 mi
8:00 AM73 °FPassing clouds.3 mph61%29.97 "Hg19 mi
7:00 AM67 °FSunny.3 mph72%29.98 "Hg19 mi
4:00 AM67 °FPassing clouds.6 mph73%30.00 "Hg25 mi
3:00 AM67 °FClear.6 mph72%30.00 "Hg25 mi
2:00 AM68 °FClear.5 mph70%30.01 "Hg25 mi
1:00 AM69 °FClear.3 mph68%30.02 "Hg25 mi
10:00 PM
Mon, Aug 3
79 °FClear.2 mph43%30.02 "Hg25 mi
Weather by CustomWeather, © 2015

See weather overviewHow to use our weather pages